Weather History for K2C8 - December, 2013

Change the Weather History Date:

Thursday, December 26, 2013

  Actual Average (KGAF) Record (KGAF)
Temperature  
Mean Temperature 14 °F -  
Max Temperature 23 °F 17 °F 44 °F (2011)
Min Temperature 6 °F -4 °F -28 °F (1964)
Degree Days  
Heating Degree Days 52    
Moisture  
Dew Point 9 °F    
Average Humidity 88    
Maximum Humidity 93    
Minimum Humidity 79    
Precipitation  
Precipitation 0.00 in - - ()
Sea Level Pressure  
Sea Level Pressure 30.03 in    
Wind  
Wind Speed 5 mph (South)    
Max Wind Speed 16 mph    
Max Gust Speed -    
Visibility 10 miles    
Events Snow    
Averages and records for this station are not official NWS values.
T = Trace of Precipitation, MM = Missing Value Source: NWS Daily Summary

Daily Weather History Graph

Daily Weather History Graph

Search for Another Location

Airport or City:

Trip Planner

Search our weather history database for the weather conditions in past years. The results will help you decide how hot, cold, wet, or windy it might be!

Date:

Astronomy

Dec. 26, 2013 Rise Set
Actual Time 8:23 AM CST 4:39 PM CST
Civil Twilight 7:45 AM CST 5:16 PM CST
Nautical Twilight 7:05 AM CST 5:57 PM CST
Astronomical Twilight 6:27 AM CST 6:35 PM CST
Moon 1:30 AM CST (12/26) 12:36 PM CST (12/26)
Length of Visible Light 9h 31m
Length of Day
8h 16m
Last Quarter, 38% of the Moon is Illuminated
Dec 26
Last Quarter
Jan 1
New
Jan 7
First Quarter
Jan 15
Full
Jan 23
Last Quarter

Hourly Weather History & Observations

Time (CST) Temp. Windchill Dew Point Humidity Pressure Visibility Wind Dir Wind Speed Gust Speed Precip Events Conditions
12:15 AM 6.8 °F -0.1 °F 5.0 °F 92% 30.06 in 10.0 mi NE 3.5 mph - N/A   Overcast
12:35 AM 6.8 °F - 5.0 °F 92% 30.06 in 10.0 mi Calm Calm - N/A   Overcast
12:55 AM 6.8 °F - 5.0 °F 92% 30.06 in 10.0 mi Calm Calm - N/A   Overcast
1:15 AM 6.8 °F - 5.0 °F 92% 30.06 in 10.0 mi Calm Calm - N/A   Overcast
1:35 AM 6.8 °F - 5.0 °F 92% 30.05 in 10.0 mi Calm Calm - N/A   Overcast
1:55 AM 6.8 °F - 5.0 °F 92% 30.05 in 10.0 mi Calm Calm - N/A   Overcast
2:15 AM 6.8 °F - 5.0 °F 92% 30.05 in 10.0 mi Calm Calm - N/A   Overcast
2:35 AM 8.6 °F - 5.0 °F 85% 30.05 in 10.0 mi Calm Calm - N/A   Overcast
2:55 AM 6.8 °F - 5.0 °F 92% 30.05 in 10.0 mi Calm Calm - N/A   Overcast
3:15 AM 6.8 °F -0.1 °F 5.0 °F 92% 30.06 in 10.0 mi SW 3.5 mph - N/A   Overcast
3:35 AM 6.8 °F - 5.0 °F 92% 30.05 in 10.0 mi Calm Calm - N/A   Overcast
3:55 AM 6.8 °F - 5.0 °F 92% 30.05 in 10.0 mi Calm Calm - N/A   Overcast
4:15 AM 6.8 °F -2.0 °F 5.0 °F 92% 30.04 in 10.0 mi South 4.6 mph - N/A   Overcast
4:35 AM 6.8 °F - 5.0 °F 92% 30.04 in 10.0 mi Calm Calm - N/A   Overcast
4:55 AM 6.8 °F - 5.0 °F 92% 30.05 in 10.0 mi Calm Calm - N/A   Overcast
5:15 AM 8.6 °F 0.1 °F 5.0 °F 85% 30.04 in 10.0 mi South 4.6 mph - N/A   Overcast
5:35 AM 8.6 °F 2.0 °F 5.0 °F 85% 30.03 in 10.0 mi South 3.5 mph - N/A   Overcast
5:55 AM 8.6 °F 2.0 °F 5.0 °F 85% 30.04 in 10.0 mi South 3.5 mph - N/A   Overcast
6:15 AM 8.6 °F -1.3 °F 5.0 °F 85% 30.04 in 10.0 mi South 5.8 mph - N/A   Mostly Cloudy
6:35 AM 8.6 °F 0.1 °F 5.0 °F 85% 30.03 in 4.0 mi SSE 4.6 mph - N/A Snow Light Snow
6:55 AM 8.6 °F 2.0 °F 5.0 °F 85% 30.04 in 8.0 mi SE 3.5 mph - N/A   Mostly Cloudy
7:15 AM 8.6 °F 0.1 °F 5.0 °F 85% 30.03 in 10.0 mi South 4.6 mph - N/A   Scattered Clouds
7:35 AM 8.6 °F -1.3 °F 5.0 °F 85% 30.03 in 10.0 mi SSE 5.8 mph - N/A   Mostly Cloudy
7:55 AM 8.6 °F -1.3 °F 5.0 °F 85% 30.04 in 10.0 mi South 5.8 mph - N/A   Overcast
8:15 AM 8.6 °F -5.5 °F 5.0 °F 85% 30.04 in 10.0 mi South 10.4 mph - N/A   Overcast
8:35 AM 8.6 °F -5.5 °F 5.0 °F 85% 30.05 in 10.0 mi South 10.4 mph - N/A   Overcast
8:55 AM 8.6 °F -4.7 °F 5.0 °F 85% 30.06 in 10.0 mi South 9.2 mph - N/A   Overcast
9:15 AM 8.6 °F -3.7 °F 5.0 °F 85% 30.07 in 10.0 mi South 8.1 mph - N/A   Overcast
9:35 AM 8.6 °F -3.7 °F 5.0 °F 85% 30.07 in 9.0 mi South 8.1 mph - N/A   Overcast
9:55 AM 8.6 °F -6.3 °F 5.0 °F 85% 30.06 in 8.0 mi South 11.5 mph - N/A   Overcast
10:15 AM 10.4 °F -3.3 °F 5.0 °F 79% 30.08 in 10.0 mi South 10.4 mph - N/A   Overcast
10:35 AM 10.4 °F -3.3 °F 6.8 °F 85% 30.07 in 10.0 mi South 10.4 mph - N/A   Overcast
10:55 AM 10.4 °F -2.4 °F 6.8 °F 85% 30.07 in 10.0 mi South 9.2 mph - N/A   Overcast
11:15 AM 10.4 °F -3.3 °F 6.8 °F 85% 30.05 in 10.0 mi South 10.4 mph - N/A   Overcast
11:35 AM 10.4 °F -4.1 °F 6.8 °F 85% 30.04 in 10.0 mi South 11.5 mph - N/A   Overcast
11:55 AM 10.4 °F -4.1 °F 6.8 °F 85% 30.05 in 10.0 mi South 11.5 mph - N/A   Overcast
12:15 PM 10.4 °F -3.3 °F 6.8 °F 85% 30.05 in 10.0 mi South 10.4 mph - N/A   Mostly Cloudy
12:35 PM 12.2 °F -1.0 °F 6.8 °F 79% 30.05 in 10.0 mi South 10.4 mph - N/A   Overcast
12:55 PM 12.2 °F 0.7 °F 6.8 °F 79% 30.04 in 10.0 mi South 8.1 mph - N/A   Overcast
1:15 PM 12.2 °F -1.0 °F 6.8 °F 79% 30.03 in 10.0 mi South 10.4 mph - N/A   Overcast
1:35 PM 12.2 °F -0.2 °F 6.8 °F 79% 30.04 in 10.0 mi South 9.2 mph - N/A   Overcast
1:55 PM 12.2 °F -0.2 °F 6.8 °F 79% 30.03 in 10.0 mi South 9.2 mph - N/A   Overcast
2:15 PM 14.0 °F 2.0 °F 8.6 °F 79% 30.04 in 10.0 mi South 9.2 mph - N/A   Unknown
2:35 PM 14.0 °F 2.9 °F 8.6 °F 79% 30.04 in 10.0 mi South 8.1 mph - N/A   Overcast
2:55 PM 14.0 °F 1.2 °F 8.6 °F 79% 30.04 in 10.0 mi South 10.4 mph - N/A   Overcast
3:15 PM 14.0 °F 0.5 °F 10.4 °F 86% 30.04 in 9.0 mi South 11.5 mph - N/A   Overcast
3:35 PM 14.0 °F 1.2 °F 10.4 °F 86% 30.04 in 4.0 mi South 10.4 mph - N/A   Overcast
3:55 PM 14.0 °F -0.2 °F 10.4 °F 86% 30.04 in 9.0 mi South 12.7 mph - N/A   Overcast
4:15 PM 14.0 °F 0.5 °F 10.4 °F 86% 30.04 in 10.0 mi South 11.5 mph - N/A   Overcast
4:35 PM 14.0 °F 1.2 °F 10.4 °F 86% 30.05 in 10.0 mi South 10.4 mph - N/A   Overcast
4:55 PM 14.0 °F 1.2 °F 10.4 °F 86% 30.05 in 10.0 mi South 10.4 mph - N/A   Overcast
5:15 PM 14.0 °F 1.2 °F 10.4 °F 86% 30.05 in 10.0 mi South 10.4 mph - N/A   Overcast
5:35 PM 14.0 °F 1.2 °F 12.2 °F 93% 30.05 in 10.0 mi South 10.4 mph - N/A   Overcast
5:55 PM 14.0 °F 1.2 °F 12.2 °F 93% 30.04 in 10.0 mi South 10.4 mph - N/A   Overcast
6:15 PM 14.0 °F 1.2 °F 12.2 °F 93% 30.03 in 10.0 mi South 10.4 mph - N/A   Overcast
6:35 PM 15.8 °F 4.2 °F 14.0 °F 93% 30.04 in 10.0 mi South 9.2 mph - N/A   Overcast
6:55 PM 15.8 °F 3.4 °F 14.0 °F 93% 30.03 in 10.0 mi South 10.4 mph - N/A   Overcast
7:15 PM 15.8 °F 3.4 °F 14.0 °F 93% 30.02 in 10.0 mi South 10.4 mph - N/A   Overcast
7:35 PM 15.8 °F 2.7 °F 14.0 °F 93% 30.01 in 10.0 mi South 11.5 mph - N/A   Overcast
7:55 PM 15.8 °F 2.1 °F 14.0 °F 93% 30.00 in 10.0 mi SSW 12.7 mph - N/A   Overcast
8:15 PM 17.6 °F 5.0 °F 14.0 °F 86% 30.01 in 10.0 mi South 11.5 mph - N/A   Overcast
8:35 PM 17.6 °F 5.0 °F 15.8 °F 93% 30.00 in 10.0 mi South 11.5 mph - N/A   Overcast
8:55 PM 17.6 °F 5.7 °F 15.8 °F 93% 30.00 in 10.0 mi South 10.4 mph - N/A   Overcast
9:15 PM 17.6 °F 6.4 °F 15.8 °F 93% 29.98 in 10.0 mi South 9.2 mph - N/A   Overcast
9:35 PM 17.6 °F 8.2 °F 15.8 °F 93% 29.96 in 10.0 mi SSE 6.9 mph - N/A   Scattered Clouds
9:55 PM 17.6 °F 6.4 °F 15.8 °F 93% 29.95 in 10.0 mi South 9.2 mph - N/A   Mostly Cloudy
10:15 PM 17.6 °F 6.4 °F 15.8 °F 93% 29.95 in 10.0 mi South 9.2 mph - N/A   Overcast
10:35 PM 19.4 °F 9.5 °F 17.6 °F 93% 29.94 in 10.0 mi South 8.1 mph - N/A   Overcast
10:55 PM 19.4 °F 8.6 °F 17.6 °F 93% 29.93 in 10.0 mi South 9.2 mph - N/A   Overcast
11:15 PM 21.2 °F 8.9 °F 17.6 °F 86% 29.91 in 10.0 mi South 12.7 mph - N/A   Partly Cloudy
11:35 PM 21.2 °F 9.5 °F 19.4 °F 93% 29.92 in 10.0 mi South 11.5 mph - N/A   Clear
11:55 PM 23.0 °F 9.6 °F 19.4 °F 86% 29.90 in 10.0 mi South 16.1 mph - N/A   Clear